カタログに戻る

STARLINK-36413

運用中通信VLEO
NORAD 67338·PAYLOAD·🇺🇸 United States

打ち上げ Jan 9, 2026 から Cape Canaveral Space Force Station

Loading…

次のパス (今後24時間)

TLE

最新Source: CelesTrak SupGP

元期: Sep 14, 2026, 20:50 UTC

1 67338C 26003E   26257.86854167  .00042361  00000+0  15347-2 0  2579
2 67338  43.0025 238.9769 0001421 261.5511  76.6371 15.27548775    18

AllMySatでSTARLINK-36413をリアルタイム追跡

Download on the App Store